Location: Marcé
(47.5801°N, 0.3280°W)
Time: 19:55:34
(UTC+01:00)

Tiros 1 despin weight - Pass Details

Date: 09 December 2021
Orbit: 592 x 641 km, 48.2° (Epoch: 16 January)

Event Time Altitude Azimuth Distance (km) Brightness Sun altitude
Rises 16:00:17 0° 281° (WNW) 2,835 ? 8.0°
Reaches altitude 10° 16:02:34 10° 281° (W) 1,928 ? 7.8°
Maximum altitude 16:06:59 81° 195° (SSW) 604 ? 7.3°
Drops below altitude 10° 16:11:23 10° 108° (ESE) 1,919 ? 6.8°
Sets 16:13:40 0° 108° (ESE) 2,821 ? 6.5°
